Vorticity
20 19 18 17 16 15 15 15 19 24 27 29 26 24 22 22 23 25 27 29 29 29 29 30 33 35 34 31 28 29 31 35 35 34 32 29 28 26 25 24 24 23 23 23 23 23 23 22 21 19 17 14 12 12 11 11 11 11 11 11 12 14 16 18 19 19 17 15 13
19 18 17 17 17 17 18 19 22 25 28 29 27 25 24 24 24 24 26 28 29 29 28 26 26 28 30 32 32 33 34 36 35 34 32 29 28 26 25 24 23 23 23 23 24 24 23 23 21 18 16 14 12 11 11 11 11 11 11 12 13 15 17 19 19 18 16 14 12
18 18 18 18 19 19 20 21 22 24 26 27 27 26 26 26 25 25 26 29 32 35 36 35 32 32 32 34 35 37 38 38 36 33 31 29 27 26 24 23 23 23 23 23 24 24 23 22 20 17 15 13 12 11 12 12 12 12 12 13 14 16 17 19 18 17 15 13 11
18 18 18 19 20 20 20 20 21 22 24 25 26 27 28 27 26 25 26 29 36 42 46 47 45 44 44 44 44 42 40 38 35 33 30 28 27 25 24 22 22 22 23 23 23 23 22 20 18 16 15 13 12 12 12 12 13 13 13 14 15 16 18 18 17 16 14 12 10
18 18 18 19 19 19 18 18 18 19 20 22 24 27 29 29 27 25 25 29 36 43 47 49 47 46 46 45 41 37 34 34 33 31 28 26 26 25 23 21 21 21 22 22 22 21 20 19 18 16 15 14 13 12 12 12 13 14 14 15 17 17 18 17 16 14 13 11 10
18 18 18 18 18 18 17 16 16 17 17 19 22 26 29 30 27 24 22 23 29 32 32 28 24 21 21 21 20 23 27 32 31 29 27 25 25 24 22 20 20 20 21 21 21 20 19 18 17 16 15 15 14 13 12 12 14 15 15 16 17 17 17 16 15 13 12 11 9
20 19 18 19 18 18 17 16 16 16 15 16 19 23 26 29 28 25 20 14 14 15 17 16 15 13 10 7 10 19 28 32 30 27 25 24 24 23 22 19 19 20 20 20 20 19 18 17 16 16 15 15 14 13 12 13 14 15 16 17 17 16 16 15 14 13 11 10 9
22 21 20 20 20 20 19 19 18 17 15 15 17 20 23 25 28 27 22 14 9 8 8 10 12 12 10 8 15 24 32 31 26 24 23 25 24 23 21 19 19 19 20 20 19 18 17 16 16 16 16 15 14 13 13 14 15 16 17 16 16 16 15 14 13 12 11 9 9
24 23 22 22 22 22 22 22 21 19 17 16 17 18 19 21 25 28 27 20 13 7 2 -2 8 19 26 24 26 29 31 28 23 22 23 26 25 23 21 19 19 19 20 19 18 18 17 16 16 16 16 15 13 13 14 15 16 16 16 16 15 14 14 14 12 11 10 9 8
25 24 23 23 24 25 25 26 25 22 20 19 19 19 19 19 22 25 25 21 14 8 2 -6 2 18 32 32 29 28 28 26 24 24 25 26 24 23 21 19 19 20 20 19 18 17 16 16 16 17 16 14 13 14 15 15 16 16 16 15 14 14 13 13 12 11 10 9 8
25 24 24 23 24 25 26 27 26 25 23 22 22 22 22 21 22 23 25 24 20 15 11 5 5 13 23 29 28 27 27 26 25 24 24 23 23 22 20 19 19 20 20 19 18 17 16 17 18 17 15 13 13 14 14 14 15 15 15 15 14 13 13 12 12 11 9 8 7
24 24 23 23 24 25 26 27 27 26 25 24 22 21 19 19 21 24 27 29 28 27 25 23 19 20 23 28 28 27 26 25 24 23 22 21 21 20 20 19 19 19 19 18 18 17 18 18 18 16 13 11 13 14 14 13 15 15 15 14 14 14 13 12 11 10 8 7 7
23 23 23 22 23 24 26 27 27 26 23 18 11 7 6 9 12 18 27 37 35 34 33 32 29 27 28 29 27 25 24 23 22 21 20 20 20 19 19 19 19 19 18 18 18 18 18 18 16 14 12 11 13 14 14 13 15 15 15 14 14 14 13 11 9 8 7 6 6
22 22 22 21 22 24 26 27 27 24 18 7 -2 -4 -2 3 4 9 21 40 40 37 34 32 31 30 29 28 25 23 21 20 20 19 19 19 19 19 19 19 19 19 19 19 19 19 18 16 14 12 12 12 14 14 13 13 15 15 15 15 14 12 11 9 7 6 6 6 6
21 22 22 21 22 24 26 28 27 22 13 2 -1 0 4 11 11 13 21 39 40 37 33 31 30 29 27 25 23 20 19 18 18 19 19 19 19 20 20 20 20 20 20 19 18 17 15 14 12 11 11 13 13 13 12 12 15 16 15 14 12 11 9 7 6 6 6 6 6
20 21 21 21 21 23 25 28 26 21 14 9 11 15 20 26 28 31 36 43 39 35 32 30 29 27 26 23 21 20 19 19 19 19 20 20 21 22 22 22 21 20 19 18 16 14 13 11 11 10 11 12 12 12 13 13 15 16 15 13 10 8 7 6 5 5 6 6 6
19 20 21 21 21 23 24 27 26 25 23 23 27 32 37 42 45 47 46 42 36 33 31 30 28 27 26 25 23 23 22 22 22 22 23 23 23 23 23 22 20 18 16 14 13 12 11 11 10 10 11 11 10 12 14 15 16 15 13 10 8 6 5 5 5 5 6 7 7
18 19 20 21 21 22 23 25 27 28 29 31 35 38 41 43 43 41 37 32 31 30 30 29 28 28 27 27 26 25 25 25 24 24 24 24 23 22 21 19 17 15 13 11 10 10 11 12 12 12 11 11 10 13 16 16 15 13 10 8 6 5 5 5 5 6 6 7 7
18 18 19 20 21 21 22 22 23 24 25 27 29 30 31 30 29 27 26 25 26 27 27 27 27 27 26 26 26 25 25 24 24 23 22 21 20 19 17 15 13 11 10 8 8 9 11 13 13 13 12 11 12 15 17 16 13 10 8 5 5 4 4 5 5 6 6 7 8
18 19 19 19 20 20 20 19 17 17 17 17 19 20 21 21 21 21 21 21 22 22 22 23 23 23 23 22 22 22 21 20 19 18 18 17 16 15 13 11 9 7 6 6 6 8 11 13 12 11 12 13 16 17 17 14 10 7 5 4 4 4 5 5 6 6 7 8 8
17 19 19 19 19 19 18 16 14 13 12 12 12 13 14 16 17 18 19 20 20 19 19 18 18 18 17 17 17 16 16 16 15 15 14 13 12 9 7 4 3 3 4 5 7 8 9 8 9 13 18 21 19 17 13 9 6 4 4 4 4 5 5 6 7 8 8 9 9
14 16 18 20 19 19 18 16 13 12 11 10 10 10 10 10 11 12 14 17 19 20 20 19 18 17 16 15 15 15 15 15 14 14 12 10 7 5 2 0 1 2 4 6 7 7 7 8 16 23 26 24 17 12 8 5 4 3 4 4 5 6 7 8 8 9 9 10 11
11 13 15 18 19 19 18 17 15 13 11 10 10 9 8 8 8 7 7 8 11 14 17 19 19 19 19 18 17 17 16 16 15 13 11 8 5 3 2 1 1 3 4 5 7 9 15 23 28 28 23 16 10 6 3 3 4 4 5 6 7 8 9 10 10 11 11 12 13
14 13 13 14 16 18 18 18 17 15 13 11 10 9 8 8 8 8 7 6 6 6 7 10 12 14 16 17 16 15 15 14 12 11 9 7 5 4 3 2 3 4 7 10 16 22 28 31 27 20 12 6 4 3 3 4 5 6 7 8 9 10 11 11 12 12 13 14 16
20 18 15 14 14 16 17 18 18 17 15 13 12 10 9 8 8 8 8 8 7 6 5 5 5 6 8 9 9 10 9 9 8 7 6 6 5 5 5 6 9 13 18 23 26 27 25 20 13 7 4 2 3 4 5 6 6 7 8 9 11 12 13 13 14 14 15 16 16
22 22 20 18 17 17 17 18 18 18 17 15 14 12 11 9 8 8 8 8 8 7 6 5 4 4 4 5 5 5 6 6 7 7 8 9 11 13 15 17 20 23 24 23 20 16 11 6 3 2 2 3 4 5 6 6 7 8 9 11 12 14 15 15 16 16 17 17 17
19 20 20 20 20 20 20 21 21 21 20 19 17 16 14 12 11 10 9 9 9 8 8 8 7 7 7 8 8 10 11 13 15 18 20 21 23 23 23 22 20 17 14 10 7 4 2 1 2 3 4 5 6 6 7 8 9 11 12 13 14 15 16 17 17 17 17 16 16
12 14 16 16 17 17 18 20 21 23 23 24 24 23 22 20 19 18 16 15 14 14 14 15 17 19 20 22 24 25 26 27 28 27 26 24 22 19 15 12 8 5 3 2 2 2 3 4 5 6 6 7 8 9 10 11 13 14 15 15 16 16 16 16 15 13 10 7 3
8 9 10 10 11 11 11 11 13 15 17 19 21 23 24 25 25 25 26 26 26 26 26 26 27 27 27 27 26 25 23 21 19 16 14 11 8 6 4 3 2 2 2 3 4 5 6 6 7 7 8 9 10 12 12 13 13 14 16 17 17 15 13 11 10 6 2 -4 -11
5 6 6 6 7 7 6 6 6 7 8 9 10 11 13 14 16 17 17 18 18 18 17 17 16 15 13 12 11 10 8 7 6 5 4 3 3 3 3 3 4 5 5 6 6 7 7 8 8 9 10 11 11 11 11 10 11 13 14 15 12 10 7 7 4 -1 -7 -12 -11
4 4 5 5 5 5 5 4 4 4 4 4 5 5 6 6 7 8 8 8 9 8 8 7 6 5 4 4 3 3 3 3 3 3 4 4 5 5 5 6 6 6 6 6 7 7 8 9 10 11 11 11 10 9 8 9 11 13 14 14 10 6 3 -1 -6 -12 -16 -16 -6
3 4 4 5 5 5 5 5 4 3 3 3 3 3 3 3 3 4 4 4 4 4 4 3 3 3 3 3 4 4 4 5 5 6 6 6 6 6 6 6 6 6 6 6 7 8 8 9 10 11 11 11 11 10 10 10 11 13 14 12 7 2 -3 -6 -9 -13 -14 -10 7
1 2 2 3 5 6 6 6 5 5 4 4 3 3 3 3 3 4 4 4 4 4 5 5 5 5 5 5 5 5 6 6 6 6 7 7 7 7 7 7 7 7 7 7 8 8 7 7 7 8 9 12 13 14 14 14 15 15 14 11 2 -4 -9 -9 -8 -9 -8 -4 8
0 -1 -1 -1 1 3 4 5 6 6 6 6 5 5 5 4 4 4 4 5 5 5 5 5 5 5 5 5 5 5 5 5 6 6 6 7 7 8 8 8 8 8 7 7 7 6 5 4 3 3 5 9 11 13 15 17 18 18 16 10 -3 -12 -15 -10 -4 1 4 6 11
1 -2 -5 -5 -4 -2 -0 2 4 6 6 7 6 6 6 5 5 4 4 4 5 5 5 5 5 5 5 6 6 6 6 7 7 7 8 8 9 10 10 11 10 10 10 10 9 8 7 6 5 5 6 8 10 12 14 17 19 19 15 6 -8 -14 -12 -1 3 7 10 12 16
0 -2 -3 -3 -2 -2 -1 1 3 5 6 7 7 7 6 6 6 5 5 5 5 5 5 5 6 7 7 8 9 9 10 10 11 11 11 11 11 12 12 12 13 13 14 15 14 14 12 11 11 10 10 11 12 14 15 16 18 18 14 6 -5 -10 -8 -1 1 5 9 13 17
2 7 13 17 14 10 8 7 8 8 8 8 8 7 7 7 7 7 7 7 7 7 7 7 8 9 10 11 11 12 12 13 13 12 12 11 10 9 9 9 10 12 14 17 19 19 18 17 16 16 16 16 16 16 16 16 16 16 15 10 4 -1 -3 -3 -1 2 5 10 13
16 30 43 49 42 32 24 19 17 13 10 8 8 8 8 8 8 8 8 8 9 9 10 10 10 10 10 10 9 8 7 6 7 7 7 7 5 3 1 0 1 4 8 13 18 20 21 20 19 18 18 17 16 15 13 13 12 13 12 12 10 8 6 4 5 5 6 7 8
30 42 52 59 56 48 39 30 24 18 13 9 8 8 8 8 8 8 8 9 9 10 11 11 10 9 7 5 2 -1 -5 -7 -6 -3 -0 3 3 2 0 -2 -3 -2 1 6 11 15 17 16 15 13 12 10 9 8 7 7 7 8 8 9 9 9 9 8 8 7 7 7 7
28 30 34 41 47 46 42 35 28 21 15 10 8 8 8 8 8 8 7 8 9 10 10 10 9 7 4 0 -5 -8 -9 -5 1 4 5 5 6 6 6 4 3 1 1 1 4 6 8 7 5 4 3 3 3 4 4 5 5 5 6 6 7 7 7 7 6 6 6 6 7
15 12 13 20 29 34 37 35 30 23 17 12 9 8 8 8 8 8 8 7 8 9 10 10 9 6 2 -3 -8 -7 1 16 28 29 22 11 9 8 9 9 9 9 8 6 3 2 1 1 1 2 3 3 4 4 4 5 5 4 4 5 5 6 5 5 4 5 5 5 5
Height
5557 5553 5549 5545 5541 5538 5534 5530 5526 5522 5518 5514 5510 5506 5502 5498 5494 5490 5486 5482 5479 5476 5474 5473 5473 5473 5473 5475 5476 5477 5479 5482 5485 5488 5492 5496 5501 5506 5511 5516 5521 5526 5531 5536 5541 5546 5551 5557 5562 5566 5570 5574 5578 5582 5586 5589 5592 5595 5599 5602 5604 5607 5609 5612 5615 5617 5619 5621 5624
5555 5551 5547 5544 5540 5536 5533 5529 5524 5520 5516 5512 5508 5504 5500 5496 5493 5489 5485 5482 5479 5476 5474 5473 5472 5472 5473 5474 5475 5476 5478 5480 5483 5487 5491 5495 5500 5505 5510 5515 5520 5525 5530 5534 5539 5545 5550 5555 5560 5564 5568 5572 5576 5581 5585 5587 5590 5594 5597 5599 5603 5605 5608 5611 5613 5615 5618 5620 5622
5554 5550 5546 5543 5539 5535 5531 5528 5524 5519 5515 5511 5507 5503 5499 5496 5493 5489 5486 5482 5479 5476 5474 5473 5472 5472 5473 5473 5474 5476 5478 5480 5483 5486 5490 5495 5499 5504 5509 5515 5520 5524 5529 5534 5539 5544 5549 5554 5558 5562 5566 5570 5575 5580 5584 5586 5589 5592 5595 5598 5601 5604 5607 5609 5611 5614 5616 5618 5620
5553 5549 5546 5542 5538 5534 5531 5527 5523 5519 5515 5511 5507 5503 5499 5496 5493 5489 5486 5483 5480 5477 5475 5474 5473 5473 5473 5474 5475 5476 5478 5480 5483 5486 5490 5495 5499 5504 5509 5514 5519 5524 5529 5533 5538 5543 5548 5552 5556 5561 5565 5569 5574 5579 5583 5586 5588 5591 5594 5597 5600 5603 5605 5608 5610 5612 5614 5617 5619
5553 5549 5545 5541 5538 5534 5530 5526 5523 5519 5515 5511 5507 5503 5499 5496 5493 5490 5487 5484 5481 5479 5477 5475 5475 5474 5474 5475 5476 5478 5480 5482 5484 5487 5491 5495 5499 5504 5509 5514 5519 5524 5529 5533 5537 5542 5547 5551 5555 5560 5564 5569 5573 5577 5581 5585 5588 5590 5593 5596 5599 5601 5604 5606 5609 5611 5613 5616 5618
5553 5549 5545 5541 5537 5533 5529 5526 5522 5519 5515 5511 5507 5504 5500 5497 5494 5491 5489 5486 5484 5481 5479 5478 5477 5476 5477 5478 5479 5481 5482 5484 5485 5488 5492 5495 5500 5504 5509 5515 5519 5524 5529 5533 5537 5542 5546 5551 5555 5559 5564 5568 5572 5576 5581 5584 5587 5589 5592 5595 5598 5600 5603 5605 5608 5610 5612 5615 5617
5553 5549 5545 5541 5537 5533 5529 5526 5522 5519 5515 5512 5508 5505 5501 5498 5495 5493 5490 5488 5486 5484 5482 5481 5480 5480 5480 5482 5483 5484 5484 5485 5487 5490 5493 5497 5501 5506 5510 5515 5520 5525 5529 5533 5537 5542 5546 5551 5555 5559 5564 5568 5572 5576 5580 5584 5586 5589 5592 5594 5597 5599 5602 5604 5607 5609 5611 5614 5616
5553 5549 5545 5541 5537 5533 5529 5526 5523 5519 5516 5513 5509 5506 5503 5499 5497 5494 5492 5490 5488 5486 5485 5484 5484 5483 5484 5484 5485 5486 5486 5487 5489 5492 5495 5499 5503 5508 5512 5517 5521 5526 5529 5534 5538 5543 5547 5551 5555 5559 5564 5568 5572 5576 5580 5584 5586 5589 5591 5594 5596 5599 5601 5604 5606 5609 5611 5613 5615
5553 5549 5545 5541 5537 5533 5529 5526 5523 5520 5517 5514 5510 5507 5504 5501 5498 5496 5494 5492 5490 5489 5488 5487 5486 5486 5486 5487 5487 5487 5488 5489 5492 5495 5498 5502 5506 5510 5514 5519 5523 5527 5531 5535 5539 5544 5548 5552 5556 5560 5564 5569 5572 5576 5580 5584 5586 5588 5591 5593 5596 5598 5600 5603 5606 5608 5610 5613 5615
5554 5549 5545 5541 5537 5534 5530 5527 5524 5521 5518 5515 5512 5509 5506 5503 5500 5498 5496 5494 5493 5492 5490 5489 5489 5489 5489 5489 5489 5490 5491 5493 5495 5498 5501 5504 5508 5512 5517 5521 5525 5529 5533 5537 5541 5545 5549 5553 5557 5561 5566 5570 5573 5576 5580 5583 5585 5588 5590 5593 5595 5598 5600 5603 5605 5608 5610 5612 5614
5555 5551 5546 5542 5538 5534 5531 5528 5525 5522 5519 5516 5514 5511 5508 5505 5503 5500 5499 5497 5495 5494 5493 5492 5492 5491 5491 5491 5492 5493 5494 5495 5498 5501 5504 5507 5511 5515 5519 5523 5527 5531 5535 5539 5543 5547 5551 5554 5558 5563 5567 5571 5573 5575 5579 5582 5584 5588 5590 5593 5595 5598 5600 5603 5605 5607 5610 5612 5614
5556 5552 5548 5544 5539 5536 5533 5529 5526 5523 5521 5518 5515 5513 5510 5507 5505 5503 5501 5499 5497 5496 5495 5494 5494 5494 5494 5494 5495 5496 5497 5499 5501 5503 5506 5510 5514 5518 5522 5525 5529 5533 5537 5541 5545 5549 5553 5556 5559 5564 5568 5571 5574 5576 5579 5581 5584 5587 5590 5593 5595 5598 5601 5603 5605 5608 5610 5612 5614
5558 5554 5550 5545 5541 5538 5534 5531 5528 5525 5523 5520 5518 5515 5512 5509 5507 5505 5503 5501 5499 5498 5497 5496 5496 5496 5496 5496 5498 5499 5500 5502 5504 5507 5510 5513 5517 5521 5524 5528 5532 5536 5539 5544 5547 5551 5554 5558 5561 5565 5569 5572 5575 5577 5579 5582 5584 5587 5590 5593 5596 5599 5601 5604 5606 5608 5610 5612 5613
5560 5556 5552 5547 5544 5540 5537 5534 5531 5528 5525 5522 5519 5517 5514 5512 5511 5509 5507 5504 5503 5501 5500 5499 5499 5498 5499 5499 5500 5501 5503 5505 5508 5510 5514 5516 5520 5524 5527 5531 5534 5538 5542 5546 5549 5553 5556 5560 5563 5566 5570 5573 5576 5578 5580 5582 5585 5588 5591 5594 5597 5599 5602 5604 5606 5608 5610 5611 5613
5562 5558 5554 5550 5546 5543 5539 5536 5533 5530 5527 5524 5521 5519 5517 5516 5516 5515 5513 5509 5506 5504 5503 5502 5501 5501 5501 5502 5503 5504 5507 5509 5511 5514 5517 5520 5523 5527 5530 5534 5537 5541 5545 5549 5552 5555 5558 5561 5564 5568 5571 5574 5577 5579 5581 5583 5585 5588 5592 5595 5598 5600 5603 5604 5606 5608 5609 5611 5613
5564 5561 5557 5553 5549 5546 5542 5539 5536 5533 5530 5527 5524 5521 5519 5519 5518 5517 5516 5514 5511 5508 5506 5505 5505 5505 5505 5506 5507 5508 5510 5512 5515 5517 5520 5523 5526 5530 5533 5537 5540 5544 5547 5551 5554 5557 5560 5563 5567 5570 5573 5575 5578 5580 5582 5584 5586 5589 5593 5596 5599 5601 5603 5605 5606 5608 5609 5611 5613
5567 5563 5560 5556 5553 5549 5546 5543 5539 5536 5534 5530 5527 5524 5522 5521 5520 5519 5518 5516 5514 5512 5510 5509 5509 5509 5509 5510 5511 5512 5514 5516 5519 5521 5524 5527 5530 5533 5537 5540 5543 5547 5550 5553 5557 5560 5563 5566 5569 5572 5574 5576 5579 5581 5583 5585 5588 5591 5594 5597 5599 5601 5603 5605 5606 5608 5609 5611 5612
5569 5566 5563 5559 5556 5553 5550 5546 5543 5540 5537 5534 5531 5529 5526 5524 5523 5522 5521 5520 5519 5517 5516 5514 5514 5514 5514 5515 5516 5517 5519 5520 5523 5525 5528 5531 5534 5537 5540 5543 5547 5550 5553 5556 5559 5563 5566 5569 5571 5573 5574 5576 5579 5582 5584 5587 5589 5592 5595 5597 5599 5601 5603 5605 5606 5608 5609 5611 5611
5572 5569 5566 5563 5560 5557 5554 5551 5548 5544 5542 5539 5536 5534 5532 5530 5528 5526 5525 5524 5524 5522 5521 5520 5519 5519 5519 5520 5521 5522 5523 5525 5527 5530 5532 5535 5538 5541 5544 5547 5551 5554 5557 5560 5562 5566 5570 5571 5572 5574 5576 5578 5581 5583 5586 5588 5591 5593 5596 5598 5600 5602 5604 5605 5606 5608 5609 5610 5611
5574 5571 5569 5566 5563 5560 5558 5555 5552 5549 5546 5544 5542 5539 5537 5535 5534 5532 5531 5530 5529 5528 5527 5526 5526 5525 5526 5526 5527 5528 5529 5530 5533 5535 5538 5540 5543 5545 5549 5552 5555 5559 5561 5563 5566 5570 5572 5573 5574 5576 5578 5580 5583 5585 5587 5590 5592 5595 5597 5599 5601 5603 5604 5605 5607 5608 5609 5610 5611
5577 5574 5572 5569 5566 5564 5561 5559 5557 5554 5551 5549 5546 5544 5543 5541 5539 5538 5537 5536 5535 5534 5534 5533 5533 5533 5533 5533 5534 5534 5535 5537 5539 5541 5544 5545 5548 5550 5553 5556 5559 5562 5564 5567 5570 5574 5575 5576 5577 5579 5580 5582 5584 5587 5589 5592 5594 5596 5599 5600 5602 5603 5605 5606 5607 5608 5609 5610 5611
5580 5577 5574 5572 5569 5567 5565 5563 5560 5558 5556 5553 5551 5549 5547 5546 5545 5544 5543 5542 5541 5541 5540 5540 5540 5540 5540 5541 5541 5542 5542 5543 5545 5547 5549 5551 5553 5555 5558 5560 5563 5565 5568 5570 5573 5576 5578 5578 5579 5580 5582 5584 5586 5589 5591 5594 5596 5598 5600 5601 5603 5604 5605 5606 5608 5608 5609 5610 5611
5584 5581 5578 5575 5573 5570 5568 5566 5564 5562 5560 5558 5556 5554 5552 5550 5549 5549 5549 5548 5548 5547 5546 5546 5546 5546 5546 5547 5547 5548 5549 5549 5551 5552 5554 5556 5558 5559 5561 5563 5565 5567 5569 5571 5575 5578 5579 5579 5580 5582 5584 5587 5589 5591 5594 5596 5598 5599 5601 5603 5604 5605 5606 5607 5609 5609 5610 5611 5611
5587 5584 5581 5579 5576 5574 5572 5569 5568 5566 5564 5562 5560 5559 5557 5555 5554 5553 5553 5553 5553 5552 5552 5552 5551 5551 5552 5552 5552 5553 5554 5555 5556 5558 5559 5561 5562 5564 5565 5566 5568 5570 5572 5574 5577 5579 5580 5581 5583 5585 5587 5589 5592 5594 5596 5598 5599 5601 5602 5604 5605 5606 5607 5608 5609 5609 5610 5611 5612
5590 5588 5585 5582 5580 5577 5575 5573 5571 5569 5568 5566 5565 5563 5562 5560 5559 5558 5557 5556 5556 5556 5556 5557 5557 5557 5557 5557 5557 5558 5559 5559 5561 5562 5564 5565 5566 5567 5569 5570 5572 5573 5575 5578 5579 5581 5582 5584 5586 5588 5590 5592 5594 5596 5598 5599 5601 5602 5603 5604 5605 5606 5607 5608 5608 5609 5610 5611 5612
5594 5592 5589 5586 5584 5581 5579 5577 5575 5574 5572 5570 5569 5567 5566 5565 5564 5563 5562 5561 5561 5560 5560 5560 5561 5561 5562 5562 5563 5563 5564 5564 5565 5566 5567 5568 5569 5571 5573 5574 5576 5578 5579 5581 5582 5584 5585 5587 5589 5591 5593 5594 5596 5598 5599 5600 5601 5602 5603 5604 5605 5606 5607 5608 5609 5609 5610 5611 5612
5599 5596 5593 5590 5588 5585 5584 5582 5580 5578 5576 5574 5573 5572 5571 5570 5569 5568 5567 5566 5566 5565 5565 5565 5565 5565 5565 5566 5567 5567 5568 5569 5569 5570 5572 5573 5574 5576 5577 5578 5580 5582 5583 5584 5585 5587 5589 5590 5592 5594 5595 5596 5598 5599 5600 5601 5602 5603 5604 5605 5606 5606 5607 5608 5609 5610 5611 5612 5613
5603 5600 5597 5595 5592 5590 5588 5586 5584 5582 5581 5579 5578 5577 5575 5574 5574 5573 5572 5572 5571 5571 5570 5570 5570 5570 5570 5570 5571 5572 5572 5573 5574 5575 5576 5577 5579 5580 5581 5583 5584 5585 5586 5587 5589 5590 5592 5593 5594 5596 5597 5598 5599 5600 5601 5602 5603 5604 5605 5606 5606 5607 5608 5609 5610 5611 5612 5613 5613
5606 5604 5602 5599 5597 5595 5593 5590 5589 5587 5585 5584 5582 5581 5580 5579 5578 5578 5577 5577 5576 5576 5576 5576 5576 5576 5576 5576 5576 5577 5577 5578 5579 5580 5581 5582 5583 5584 5585 5586 5587 5588 5589 5590 5591 5593 5594 5595 5596 5598 5599 5599 5600 5601 5602 5604 5605 5606 5606 5607 5607 5608 5609 5610 5611 5612 5613 5613 5614
5610 5608 5606 5604 5602 5599 5598 5595 5593 5591 5589 5588 5586 5585 5584 5584 5583 5582 5582 5582 5581 5581 5581 5581 5581 5581 5581 5581 5582 5582 5582 5583 5584 5584 5585 5586 5587 5588 5589 5589 5590 5591 5592 5593 5594 5595 5596 5597 5598 5599 5600 5601 5602 5603 5604 5604 5605 5606 5606 5607 5608 5609 5610 5611 5612 5612 5613 5614 5615
5613 5611 5609 5608 5606 5604 5602 5600 5598 5596 5594 5593 5591 5590 5589 5588 5588 5587 5587 5586 5586 5586 5586 5586 5586 5586 5586 5586 5587 5587 5587 5588 5588 5589 5589 5590 5590 5591 5592 5593 5593 5594 5595 5596 5597 5598 5599 5599 5600 5601 5602 5603 5603 5604 5604 5605 5606 5606 5607 5607 5608 5609 5610 5611 5612 5613 5614 5614 5616
5616 5614 5613 5611 5609 5608 5606 5604 5602 5601 5599 5597 5596 5594 5594 5593 5592 5591 5590 5590 5590 5590 5590 5590 5590 5590 5590 5590 5590 5591 5591 5591 5592 5592 5593 5593 5594 5594 5594 5595 5596 5597 5597 5598 5599 5600 5601 5602 5603 5603 5604 5604 5604 5605 5605 5606 5606 5607 5608 5608 5609 5609 5611 5612 5613 5614 5615 5616 5616
5619 5617 5615 5614 5612 5611 5609 5608 5606 5604 5603 5601 5600 5599 5598 5597 5596 5595 5594 5594 5594 5594 5593 5593 5594 5594 5594 5594 5594 5594 5594 5594 5595 5595 5595 5596 5596 5597 5597 5598 5599 5599 5600 5601 5602 5602 5603 5604 5604 5604 5605 5605 5606 5606 5607 5607 5608 5609 5609 5609 5610 5610 5611 5612 5613 5614 5615 5616 5616
5621 5619 5618 5616 5615 5614 5612 5610 5609 5608 5606 5605 5604 5603 5602 5601 5600 5599 5598 5598 5597 5597 5597 5596 5597 5597 5597 5597 5597 5597 5597 5597 5598 5598 5598 5598 5599 5599 5600 5601 5601 5602 5602 5603 5604 5604 5604 5605 5606 5607 5607 5608 5608 5608 5609 5609 5609 5610 5611 5611 5612 5612 5613 5614 5615 5615 5616 5616 5615
5623 5621 5619 5618 5617 5615 5614 5613 5611 5610 5609 5608 5607 5606 5605 5604 5604 5603 5602 5601 5601 5600 5600 5600 5600 5599 5599 5600 5599 5600 5600 5600 5600 5600 5601 5601 5601 5602 5602 5603 5604 5604 5604 5604 5605 5605 5606 5607 5608 5609 5609 5610 5610 5609 5610 5610 5611 5611 5612 5613 5613 5614 5615 5616 5616 5616 5616 5616 5616
5624 5623 5621 5619 5618 5616 5615 5614 5613 5612 5611 5610 5609 5609 5608 5607 5607 5606 5605 5605 5604 5604 5604 5604 5603 5603 5603 5603 5603 5603 5603 5603 5603 5603 5603 5604 5604 5604 5604 5605 5605 5606 5606 5606 5607 5607 5608 5609 5609 5609 5609 5609 5610 5610 5611 5611 5612 5613 5613 5614 5614 5614 5615 5615 5615 5616 5616 5616 5617
5626 5624 5622 5620 5618 5617 5616 5615 5614 5614 5613 5612 5612 5611 5610 5610 5609 5609 5608 5608 5607 5607 5607 5607 5607 5606 5606 5606 5606 5606 5606 5606 5606 5606 5606 5606 5607 5607 5607 5607 5607 5608 5608 5609 5609 5609 5610 5610 5610 5610 5611 5611 5611 5612 5612 5613 5613 5614 5614 5615 5615 5615 5615 5615 5616 5616 5617 5617 5617
5627 5624 5622 5619 5618 5617 5616 5615 5615 5615 5614 5614 5614 5613 5613 5612 5611 5611 5610 5610 5610 5610 5610 5609 5609 5609 5609 5609 5609 5609 5609 5609 5609 5609 5609 5609 5609 5609 5609 5609 5610 5610 5611 5611 5611 5611 5612 5612 5612 5612 5613 5613 5613 5614 5614 5614 5615 5615 5615 5616 5616 5616 5616 5616 5616 5617 5617 5617 5616
5628 5625 5622 5620 5618 5617 5616 5616 5616 5616 5616 5616 5616 5615 5614 5614 5614 5613 5613 5612 5612 5612 5612 5612 5612 5611 5611 5611 5611 5611 5611 5611 5611 5612 5612 5612 5612 5612 5612 5612 5613 5613 5613 5614 5614 5614 5614 5614 5614 5614 5614 5614 5615 5615 5616 5616 5616 5616 5616 5617 5617 5617 5617 5617 5617 5617 5617 5617 5617
5630 5628 5625 5623 5620 5619 5618 5617 5617 5618 5618 5618 5618 5617 5617 5616 5616 5615 5615 5614 5614 5614 5614 5614 5614 5614 5614 5614 5614 5614 5614 5614 5614 5614 5615 5615 5615 5614 5614 5615 5615 5616 5616 5616 5616 5616 5616 5616 5616 5616 5616 5617 5617 5617 5617 5617 5617 5617 5618 5618 5618 5618 5618 5618 5617 5617 5617 5617 5617
5633 5631 5629 5626 5624 5622 5621 5620 5619 5619 5619 5620 5619 5619 5619 5618 5618 5618 5617 5617 5616 5616 5616 5616 5616 5616 5616 5616 5616 5617 5617 5617 5617 5617 5617 5617 5617 5617 5617 5617 5618 5618 5619 5619 5619 5619 5618 5618 5618 5618 5618 5618 5618 5618 5618 5618 5619 5619 5619 5619 5619 5619 5619 5618 5618 5618 5617 5617 5617